Wind_Speed
8 8 7 6 6 6 6 6 5 4 3 3 3 3 4 5 6 7 8 9 10 12 13 14 15 16 16 17 17 18 19 19 20 20 21 21 22 23 24 24 25 25 26 26 27 28 29 30 31
11 10 9 8 8 7 7 6 4 3 2 2 3 5 6 7 8 9 10 12 13 13 14 15 16 17 17 18 19 20 20 21 22 22 23 23 24 25 26 27 27 28 28 29 30 31 32 33 34
11 10 9 8 7 6 5 4 3 2 3 4 6 7 9 10 10 12 13 13 14 14 15 16 17 17 18 19 20 21 21 22 23 24 24 25 26 27 28 29 29 30 31 32 33 34 35 36 37
10 9 7 6 5 5 4 4 5 5 6 7 9 10 11 12 12 13 14 14 14 15 16 17 17 18 19 20 21 22 23 23 24 26 26 27 28 29 30 31 32 33 34 35 36 37 38 39 41
8 7 5 5 4 4 5 7 8 9 9 10 11 12 12 13 13 13 14 14 15 15 16 17 18 19 20 21 22 22 24 25 26 27 28 29 30 31 32 33 34 36 37 38 39 40 41 43 44
5 5 4 5 5 6 8 9 10 11 12 12 12 12 13 13 13 13 14 14 15 16 17 18 19 20 21 21 22 23 24 26 27 28 29 30 32 33 34 35 36 38 39 41 42 43 45 46 48
3 4 5 6 8 9 10 11 12 13 13 13 12 12 13 13 13 13 14 15 15 17 18 19 19 20 21 22 23 24 25 26 27 28 30 31 32 34 35 37 38 40 41 43 44 46 48 50 52
4 6 7 9 10 11 12 13 13 13 13 12 12 12 13 13 13 14 14 15 16 17 18 19 20 21 22 23 23 24 25 26 27 29 30 31 33 35 36 38 40 41 43 45 47 49 51 53 55
6 8 10 11 12 13 14 14 13 14 13 12 12 12 12 13 14 14 15 16 16 17 18 19 20 21 22 23 24 25 26 27 28 29 30 32 34 35 37 39 41 43 45 46 48 51 53 55 57
8 10 12 13 14 14 14 14 13 13 13 12 12 12 12 13 14 15 15 16 17 18 19 20 20 21 22 23 24 25 26 28 29 30 32 33 35 37 38 40 42 44 46 48 50 52 54 56 59
10 12 13 14 14 14 13 13 13 13 12 12 12 12 12 13 14 15 16 17 17 18 19 20 21 22 23 24 25 26 27 29 30 32 33 35 36 38 40 41 43 45 47 49 51 53 55 58 60
12 13 14 14 14 13 12 12 12 12 12 12 12 12 13 14 14 15 16 17 17 18 19 20 21 22 24 25 26 27 29 30 31 33 35 36 38 39 41 42 44 46 48 50 52 54 56 59 61
13 14 14 14 14 13 12 11 11 11 11 11 11 12 13 14 15 16 16 17 18 18 19 21 22 23 24 25 27 28 30 31 33 34 36 37 39 41 42 43 45 47 49 51 53 55 57 60 63
15 15 15 14 14 13 12 11 11 11 11 11 11 12 13 14 14 15 16 17 18 19 20 21 23 24 25 27 28 30 31 33 34 36 38 39 41 42 43 45 47 49 50 52 54 57 59 61 64
16 16 16 15 15 14 13 12 12 12 12 12 12 12 13 14 15 15 16 17 18 19 21 22 23 25 26 28 30 31 33 35 36 38 40 41 42 44 45 47 49 51 52 54 56 58 60 63 66
17 17 16 16 16 15 14 13 13 13 13 13 13 13 14 14 15 16 17 18 19 20 21 22 24 25 27 28 30 33 34 36 38 40 41 43 44 45 47 49 51 52 54 56 58 60 62 65 67
18 18 18 18 17 17 16 15 16 14 15 15 15 15 15 16 16 17 18 19 20 21 22 23 24 26 28 29 31 34 36 38 39 41 43 44 46 47 48 50 52 54 56 58 60 62 64 66 69
20 20 19 20 19 19 18 17 18 17 17 16 16 16 17 17 18 18 19 20 21 22 23 24 25 27 29 31 33 35 37 39 41 43 44 46 47 49 50 52 54 56 58 60 62 64 67 69 71
22 22 21 22 22 22 20 19 20 20 18 18 18 18 19 19 19 20 21 22 23 24 25 26 27 29 30 32 34 37 39 41 43 44 46 48 49 51 52 54 56 58 60 62 64 66 68 71 74
24 23 23 23 25 25 23 22 22 22 21 20 20 20 20 21 21 22 23 24 25 27 28 29 30 31 32 34 37 39 41 43 44 46 48 50 51 53 54 56 57 59 62 64 66 68 70 73 76
25 26 25 26 26 27 27 23 24 24 23 23 23 23 23 23 24 24 25 27 28 29 30 31 32 34 35 37 39 41 43 45 47 49 50 52 53 55 56 58 60 61 63 66 68 70 72 75 78
26 28 28 28 29 28 29 28 22 25 24 24 24 25 25 26 26 27 28 29 30 31 32 34 35 36 38 40 42 44 46 48 49 51 52 54 55 56 58 60 61 63 65 68 70 72 74 76 78
29 29 30 30 30 30 29 31 23 25 25 26 26 27 27 28 29 30 31 32 33 34 35 37 38 39 41 43 45 46 48 50 52 53 54 56 57 58 60 61 63 65 67 69 72 74 76 77 78
30 31 32 32 31 31 29 31 27 26 26 27 28 28 29 30 31 32 34 35 36 38 39 40 41 42 44 46 47 49 51 53 54 55 56 57 58 60 61 63 64 66 68 70 73 74 76 78 78
31 32 34 34 32 31 31 31 28 28 28 28 29 30 31 32 34 35 37 38 39 41 42 43 44 45 47 49 50 52 53 55 56 57 58 59 60 62 63 64 66 67 69 71 73 75 76 78 78
31 32 34 37 36 34 33 32 28 29 30 30 31 32 33 35 37 38 40 41 43 44 45 46 48 49 50 51 53 55 56 57 58 59 59 61 62 63 64 65 67 69 70 72 74 75 76 77 76
32 32 34 37 39 38 35 33 28 28 30 31 33 34 36 38 40 41 43 45 46 47 48 50 51 52 53 54 56 57 58 59 60 60 61 63 64 65 65 67 68 70 71 73 74 75 75 75 75
33 34 35 37 41 42 39 34 31 29 30 32 34 37 39 41 44 45 47 48 49 50 51 52 53 54 56 56 58 59 60 61 61 62 63 64 65 66 67 68 69 71 72 73 74 74 75 74 73
32 33 35 38 40 43 44 37 32 33 34 35 37 40 43 45 46 48 49 51 52 53 53 54 55 57 57 58 59 60 61 62 63 63 65 66 66 67 68 69 70 71 72 73 74 74 73 72 71
34 34 36 38 40 42 46 41 33 34 36 38 41 43 46 48 49 50 51 52 53 54 55 56 57 58 59 60 61 61 62 63 64 65 66 67 67 68 69 70 71 71 71 72 73 73 72 71 70
Wind_Direction
85 85 87 92 95 97 98 100 101 97 80 54 25 4 347 339 334 330 326 324 322 320 318 316 315 313 311 310 308 307 306 305 305 304 303 302 302 301 301 300 299 297 296 296 296 295 294 294 293
88 88 89 90 91 93 94 94 94 88 60 11 346 334 326 324 324 323 320 319 317 316 314 313 312 311 309 308 307 305 305 305 304 304 302 302 301 301 300 299 298 297 296 295 295 294 294 293 292
90 89 88 87 84 80 74 64 45 19 353 336 329 324 319 317 318 317 316 315 314 313 312 311 310 309 308 307 306 305 305 305 304 303 302 301 301 300 300 299 298 297 296 295 295 294 293 292 291
88 85 82 78 67 53 31 5 348 336 328 323 321 319 314 313 315 315 315 314 313 312 310 309 308 308 307 307 306 306 306 305 305 304 303 303 302 302 301 300 298 297 296 295 294 293 292 291 290
82 76 67 54 32 9 349 336 329 323 319 319 319 317 314 314 316 315 314 313 311 310 309 308 308 308 308 307 307 307 307 306 305 305 304 304 303 302 302 301 300 298 297 296 295 294 293 292 291
72 53 30 9 352 337 328 324 321 318 316 317 318 317 314 314 315 313 312 311 310 309 309 309 310 310 310 309 308 308 308 307 307 307 306 306 305 304 303 302 301 300 299 298 296 295 294 293 292
37 7 349 337 330 323 319 318 317 315 315 316 316 315 313 313 313 313 312 311 311 311 311 312 312 312 312 311 311 310 310 310 310 309 309 308 307 306 305 304 303 302 300 299 298 297 296 295 294
349 338 330 325 321 318 315 314 314 313 313 314 314 313 312 313 313 313 312 312 312 313 314 315 315 314 314 314 314 314 314 313 313 312 312 311 310 309 308 307 306 304 303 302 301 300 298 298 297
332 328 324 320 318 316 314 312 313 312 313 314 314 313 312 312 313 313 314 314 315 316 317 318 318 318 318 317 318 317 317 316 316 316 315 314 314 313 311 310 309 308 306 304 303 302 300 300 299
326 323 321 320 318 316 313 311 311 311 311 313 313 313 312 312 313 314 316 317 318 320 321 321 322 322 321 321 321 321 320 319 319 318 318 317 317 315 314 313 311 310 308 306 305 303 302 301 301
323 322 320 318 316 315 311 309 309 308 309 311 312 311 311 312 314 316 319 321 323 323 324 325 325 324 324 324 324 323 322 321 320 320 319 319 318 317 315 314 313 312 310 309 307 306 304 304 303
318 318 316 313 312 311 309 306 305 305 306 307 308 309 310 312 316 320 323 325 325 326 326 326 326 326 326 326 325 324 323 322 321 320 320 319 318 317 316 315 314 313 312 311 309 308 307 306 305
313 312 311 309 307 306 305 303 301 301 303 304 305 307 310 313 318 321 324 325 326 326 327 326 326 326 327 327 326 324 322 321 321 321 320 319 318 317 316 316 315 314 313 312 311 310 309 308 307
308 307 306 305 303 302 301 300 298 298 301 301 303 305 309 313 318 321 323 324 325 326 326 326 326 327 327 327 325 324 322 321 321 320 319 318 317 317 316 316 316 315 315 314 313 312 311 310 310
305 303 301 300 298 297 297 296 295 295 296 298 300 303 308 312 316 319 321 322 323 324 325 325 326 327 327 327 326 324 323 322 321 320 319 318 317 317 317 316 316 316 316 315 315 314 314 313 312
301 299 297 295 294 293 293 293 292 293 294 296 298 302 305 309 313 316 318 319 320 321 322 324 325 326 327 327 327 326 325 324 322 322 320 319 318 318 318 317 318 317 317 317 317 316 316 315 315
297 296 294 291 290 290 290 289 290 291 292 294 297 300 302 306 309 312 313 315 317 319 320 322 324 326 327 327 327 327 326 325 324 323 322 321 320 319 318 318 318 319 319 318 318 318 318 318 318
295 294 292 290 289 288 286 285 286 289 290 292 294 298 301 303 306 308 310 312 313 316 319 321 323 325 326 327 327 327 327 326 325 324 324 323 322 320 319 319 319 320 320 320 320 321 321 320 320
293 292 290 288 289 288 286 284 284 287 288 289 292 294 297 300 303 305 307 309 311 313 316 318 320 322 324 325 326 326 326 326 326 325 324 324 323 322 321 320 321 321 321 322 322 322 323 323 322
293 292 289 288 288 287 286 284 282 285 287 288 291 293 295 298 301 303 305 307 309 311 313 315 317 319 321 323 324 325 325 325 325 325 324 324 323 323 322 322 322 323 323 324 324 324 324 324 324
292 292 289 288 288 288 286 283 282 284 285 288 290 292 293 296 299 301 303 305 307 309 311 313 315 317 318 320 322 323 323 324 324 324 323 323 323 323 323 323 323 323 324 325 326 326 326 326 325
291 291 290 289 288 288 288 286 283 285 286 287 289 290 292 294 297 299 301 303 305 307 309 311 313 315 316 317 319 320 321 321 322 322 322 322 322 323 323 323 324 324 325 326 327 327 327 327 326
291 290 289 289 289 290 290 288 290 286 286 287 288 290 291 293 294 296 298 301 303 305 307 309 310 312 313 315 316 318 319 320 320 321 321 322 322 322 323 324 324 325 325 326 327 328 327 327 327
292 292 290 290 290 291 291 290 293 288 287 287 288 288 289 291 292 294 296 298 300 302 304 306 308 309 311 312 314 315 317 318 319 319 320 321 321 322 323 324 325 326 326 326 327 327 328 328 327
293 294 294 293 293 293 293 292 296 292 289 288 288 288 288 290 291 292 293 295 297 299 302 304 306 307 309 311 312 314 315 317 318 318 319 320 321 321 322 324 325 325 326 326 327 327 327 328 327
294 295 296 296 296 296 296 297 301 295 291 289 288 288 288 289 289 290 291 293 295 297 299 301 304 305 307 309 311 313 314 315 316 317 318 319 320 321 322 323 324 325 325 326 326 327 327 328 327
295 295 295 296 296 297 297 299 301 297 293 290 289 288 288 287 288 288 290 292 295 297 298 300 302 304 306 308 310 312 313 314 315 316 317 318 319 321 322 323 323 324 324 325 326 326 327 327 327
296 297 298 297 297 298 299 303 307 304 298 291 288 287 286 286 287 289 291 293 295 296 298 299 301 303 305 307 309 311 312 312 313 315 316 317 318 320 321 322 323 323 323 324 325 325 326 327 327
295 296 297 297 298 299 300 304 312 305 298 292 288 285 284 285 287 289 291 293 294 296 297 298 300 302 304 306 308 309 310 311 312 314 314 315 317 319 320 321 323 323 323 323 324 325 326 327 327
295 296 297 298 298 299 300 304 310 302 296 291 287 286 286 287 289 290 292 293 294 295 297 298 300 302 303 305 306 308 308 309 310 312 313 314 316 318 319 320 322 322 322 323 323 324 326 327 328
Height
5871 5871 5872 5874 5875 5875 5875 5875 5875 5875 5875 5875 5875 5874 5874 5874 5874 5875 5872 5869 5869 5868 5867 5866 5865 5864 5863 5862 5861 5860 5859 5858 5857 5856 5855 5854 5853 5852 5851 5851 5850 5849 5848 5848 5847 5846 5846 5845 5845
5872 5874 5875 5876 5876 5876 5877 5876 5876 5876 5876 5876 5875 5874 5873 5872 5872 5871 5869 5868 5867 5866 5865 5864 5863 5862 5860 5859 5858 5857 5856 5855 5854 5853 5851 5850 5849 5848 5847 5846 5845 5844 5843 5842 5842 5841 5840 5839 5839
5875 5876 5877 5877 5877 5877 5878 5877 5877 5876 5876 5875 5875 5874 5873 5871 5870 5869 5868 5866 5865 5864 5863 5862 5860 5859 5858 5857 5855 5854 5853 5851 5850 5848 5847 5846 5845 5843 5842 5841 5839 5838 5837 5836 5835 5834 5833 5832 5832
5877 5878 5879 5879 5878 5878 5878 5878 5877 5876 5875 5874 5873 5872 5871 5870 5869 5867 5866 5864 5863 5862 5861 5859 5858 5857 5855 5854 5852 5850 5849 5847 5846 5844 5842 5841 5839 5838 5836 5835 5833 5832 5830 5829 5828 5826 5825 5824 5823
5879 5880 5880 5880 5879 5878 5878 5877 5876 5875 5874 5873 5872 5870 5869 5868 5866 5865 5864 5862 5861 5860 5858 5857 5855 5854 5852 5850 5849 5847 5845 5843 5841 5839 5837 5836 5834 5832 5830 5828 5826 5824 5822 5821 5819 5817 5816 5814 5813
5881 5881 5881 5880 5879 5878 5877 5876 5875 5873 5872 5871 5870 5868 5867 5866 5864 5863 5862 5860 5859 5857 5856 5854 5852 5851 5849 5847 5845 5843 5841 5839 5837 5834 5832 5830 5827 5825 5823 5821 5818 5816 5814 5812 5809 5807 5805 5803 5801
5882 5881 5880 5880 5879 5877 5876 5874 5873 5872 5870 5869 5868 5867 5865 5864 5862 5861 5859 5858 5856 5855 5853 5851 5849 5847 5845 5843 5841 5839 5836 5834 5832 5829 5826 5824 5821 5818 5816 5813 5810 5807 5805 5802 5799 5796 5793 5790 5788
5881 5881 5880 5879 5877 5876 5875 5873 5871 5870 5868 5867 5866 5865 5863 5862 5860 5858 5857 5855 5854 5852 5850 5848 5846 5844 5842 5839 5837 5834 5832 5829 5826 5824 5821 5818 5814 5811 5808 5805 5802 5798 5795 5792 5788 5785 5781 5778 5774
5881 5881 5879 5877 5876 5875 5873 5871 5869 5868 5866 5865 5864 5863 5861 5859 5857 5856 5855 5853 5851 5849 5847 5845 5843 5840 5838 5835 5833 5830 5827 5824 5821 5818 5815 5811 5808 5804 5801 5797 5793 5789 5785 5781 5777 5773 5769 5765 5760
5880 5879 5878 5876 5875 5873 5871 5869 5868 5866 5864 5863 5862 5860 5858 5857 5855 5854 5852 5850 5848 5846 5844 5842 5839 5837 5834 5831 5828 5825 5822 5819 5815 5812 5809 5805 5801 5797 5793 5789 5784 5780 5775 5771 5766 5761 5757 5752 5747
5879 5878 5876 5874 5872 5871 5869 5867 5866 5864 5862 5861 5860 5858 5856 5855 5853 5851 5849 5848 5846 5843 5841 5838 5836 5833 5830 5827 5824 5821 5817 5814 5810 5806 5802 5798 5794 5790 5785 5780 5775 5770 5765 5760 5755 5750 5744 5739 5733
5878 5876 5874 5872 5871 5869 5868 5866 5865 5863 5862 5860 5858 5856 5854 5852 5851 5849 5847 5845 5843 5841 5838 5835 5832 5829 5826 5823 5819 5816 5812 5809 5805 5800 5796 5792 5787 5782 5777 5772 5767 5761 5756 5750 5744 5739 5732 5726 5720
5876 5874 5872 5871 5869 5868 5866 5865 5863 5862 5860 5858 5856 5854 5853 5851 5849 5847 5845 5843 5840 5838 5835 5832 5829 5826 5822 5819 5815 5811 5807 5803 5799 5794 5790 5785 5780 5775 5769 5764 5758 5752 5746 5740 5734 5727 5721 5714 5706
5874 5872 5871 5869 5867 5866 5864 5863 5861 5860 5858 5856 5855 5853 5851 5849 5847 5844 5842 5840 5837 5835 5832 5829 5825 5822 5818 5814 5810 5806 5802 5798 5793 5788 5783 5778 5773 5767 5761 5755 5749 5743 5737 5730 5723 5716 5709 5701 5692
5872 5870 5869 5867 5865 5863 5862 5861 5859 5858 5856 5854 5853 5851 5849 5847 5844 5842 5839 5837 5834 5831 5828 5825 5822 5818 5814 5810 5806 5801 5797 5792 5787 5782 5776 5771 5765 5759 5753 5747 5740 5733 5726 5719 5712 5704 5696 5687 5678
5869 5868 5866 5865 5863 5861 5861 5860 5857 5855 5853 5852 5850 5848 5846 5844 5841 5839 5836 5834 5831 5828 5825 5821 5818 5814 5809 5805 5801 5796 5791 5786 5780 5775 5769 5763 5757 5750 5744 5737 5730 5723 5715 5708 5699 5691 5682 5673 5663
5866 5865 5863 5862 5860 5858 5857 5856 5854 5852 5850 5848 5847 5845 5842 5840 5838 5836 5833 5830 5828 5824 5821 5817 5813 5809 5805 5800 5796 5790 5785 5780 5774 5768 5761 5755 5748 5741 5734 5727 5719 5712 5703 5695 5686 5677 5668 5658 5648
5863 5861 5859 5857 5856 5855 5853 5853 5851 5849 5847 5845 5843 5841 5839 5837 5835 5832 5829 5827 5824 5820 5817 5813 5808 5804 5799 5795 5790 5784 5779 5773 5766 5760 5753 5746 5739 5732 5724 5716 5708 5700 5691 5682 5673 5663 5652 5642 5631
5859 5857 5856 5854 5852 5850 5849 5849 5847 5845 5843 5842 5840 5838 5835 5833 5831 5828 5825 5822 5819 5816 5812 5807 5803 5798 5794 5789 5783 5778 5772 5766 5759 5752 5745 5737 5730 5722 5714 5705 5697 5688 5679 5669 5659 5648 5637 5624 5613
5855 5853 5851 5849 5847 5845 5845 5844 5843 5841 5839 5837 5836 5833 5831 5829 5826 5824 5821 5817 5814 5810 5806 5801 5797 5792 5787 5782 5777 5771 5764 5758 5751 5744 5736 5728 5720 5712 5703 5694 5685 5675 5666 5655 5645 5633 5621 5608 5594
5851 5848 5846 5844 5842 5840 5839 5840 5839 5836 5834 5833 5831 5829 5826 5824 5821 5818 5815 5812 5808 5804 5800 5795 5790 5785 5780 5775 5769 5763 5756 5749 5742 5735 5727 5719 5710 5701 5692 5683 5673 5663 5652 5641 5630 5618 5605 5592 5576
5846 5843 5841 5839 5837 5835 5834 5833 5836 5831 5830 5827 5826 5823 5821 5818 5816 5812 5809 5806 5802 5797 5793 5788 5783 5778 5772 5767 5761 5754 5748 5741 5733 5725 5717 5709 5700 5691 5681 5671 5661 5650 5639 5628 5615 5603 5589 5575 5560
5841 5838 5836 5833 5831 5830 5829 5826 5831 5827 5825 5822 5820 5818 5815 5812 5809 5806 5802 5799 5795 5790 5786 5781 5776 5770 5764 5758 5752 5745 5739 5731 5723 5715 5707 5698 5689 5680 5670 5660 5649 5638 5626 5614 5601 5588 5574 5559 5544
5835 5833 5830 5828 5826 5826 5824 5821 5823 5821 5819 5816 5814 5811 5808 5806 5803 5799 5795 5791 5787 5782 5778 5772 5767 5762 5756 5749 5743 5736 5729 5721 5713 5705 5696 5687 5678 5668 5658 5648 5637 5625 5613 5601 5587 5573 5559 5544 5528
5830 5827 5824 5821 5820 5820 5817 5815 5818 5815 5812 5809 5807 5804 5801 5798 5795 5791 5787 5783 5779 5774 5769 5764 5758 5753 5746 5740 5733 5726 5718 5710 5702 5694 5685 5676 5666 5657 5647 5636 5624 5613 5600 5587 5574 5560 5545 5530 5514
5825 5822 5819 5815 5813 5812 5811 5809 5813 5808 5805 5801 5799 5796 5793 5790 5786 5782 5778 5774 5770 5765 5760 5754 5749 5743 5736 5730 5723 5715 5708 5699 5691 5682 5674 5664 5655 5645 5634 5624 5612 5600 5588 5575 5561 5547 5532 5517 5501
5820 5817 5814 5809 5805 5804 5804 5804 5806 5802 5798 5794 5791 5788 5784 5780 5776 5772 5768 5764 5760 5755 5750 5744 5738 5732 5726 5719 5712 5704 5696 5688 5680 5671 5662 5652 5643 5632 5622 5611 5599 5587 5575 5562 5549 5535 5520 5505 5489
5814 5811 5808 5803 5798 5795 5795 5797 5798 5794 5791 5787 5783 5778 5774 5770 5766 5762 5758 5754 5749 5744 5738 5732 5727 5721 5714 5707 5700 5693 5685 5676 5668 5659 5650 5640 5630 5620 5609 5598 5587 5575 5563 5550 5537 5523 5508 5493 5478
5808 5806 5801 5797 5793 5789 5784 5791 5792 5786 5781 5777 5773 5768 5763 5760 5756 5752 5747 5742 5737 5732 5726 5721 5715 5709 5702 5695 5688 5681 5673 5664 5655 5647 5638 5628 5618 5608 5597 5586 5575 5563 5550 5538 5525 5511 5497 5482 5467
5801 5799 5795 5792 5788 5782 5776 5781 5783 5777 5771 5765 5761 5757 5753 5749 5745 5741 5736 5731 5726 5720 5715 5709 5703 5697 5690 5683 5676 5669 5660 5651 5643 5634 5625 5615 5605 5595 5585 5574 5562 5551 5538 5526 5513 5500 5486 5471 5457